Terug naar catalogus

SL-16 DEB

ActiefLEO
NORAD 43354·DEBRIS·🇷🇺 Russia

Gelanceerd Sep 4, 1996 vanaf Baikonur Cosmodrome

Loading…

Volgende Passages (komende 24 uur)

TLE

VersSource: Space-Track

Epoch: Sep 14, 2026, 14:48 UTC

1 43354U 96051P   26257.61723687 -.00000087  00000-0 -20072-4 0  9994
2 43354  71.1889 123.1801 0094006 319.4984  39.9168 14.14206679661052

Volg SL-16 DEB in realtime met AllMySat

Download on the App Store